Date String (YYYY-MM-DD hh:mm:ss) UTC,Instrument flags,Ambient pressure (hPa),Sample flow (lpm),Bypass flow (lpm),Sample temperature (°C),Ambient temperature (°C),ASC tube jacket temperature (°C),LED temperature (°C),Box temperature (°C),Sample RH (%),Span deviation,Mass concentration (μg/m³),Mass concentration (μg/m³),Mass concentration (μg/m³)
DateTimeUTC,F1_M11,P_M11,Q1_M11,Q2_M11,T1_M11,T2_M11,T3_M11,T4_M11,T5_M11,U1_M11,ZSPAN_M11,X0_M11,X2_M11,X1_M11
2022-04-09 10:00:00,,0820.4,5.02,0.00,27.3,26.4,00.0,36.3,29.0,07.8,0000.0,0004.25,0002.33,0001.34
2022-04-09 10:01:00,,0820.5,4.99,0.00,27.3,26.4,00.0,36.3,29.1,07.8,0000.0,0004.39,0002.37,0001.33
2022-04-09 10:02:00,,0820.5,4.99,0.00,27.3,26.4,00.0,36.3,29.1,07.8,0000.0,0004.14,0002.27,0001.32
2022-04-09 10:03:00,,0820.5,5.01,0.00,27.3,26.4,00.0,36.2,29.0,07.8,0000.0,0004.79,0002.26,0001.32
2022-04-09 10:04:00,,0820.5,5.00,0.00,27.2,26.4,00.0,36.2,29.0,07.8,0000.0,0005.95,0002.30,0001.32
2022-04-09 10:05:00,,0820.5,4.99,0.00,27.2,26.4,00.0,36.2,29.0,07.9,0000.0,0006.16,0002.36,0001.31
2022-04-09 10:06:00,,0820.5,4.99,0.00,27.2,26.4,00.0,36.2,29.0,07.9,0000.0,0006.10,0002.35,0001.31
2022-04-09 10:07:00,,0820.4,5.00,0.00,27.2,26.4,00.0,36.2,29.0,07.9,0000.0,0006.54,0002.40,0001.32
2022-04-09 10:08:00,,0820.5,5.00,0.00,27.2,26.4,00.0,36.2,29.0,07.9,0000.0,0006.73,0002.43,0001.31
2022-04-09 10:09:00,,0820.5,5.00,0.00,27.2,26.4,00.0,36.2,29.0,07.8,0000.0,0006.94,0002.50,0001.32
2022-04-09 10:10:00,,0820.6,5.01,0.00,27.2,26.4,00.0,36.2,29.0,07.8,0000.0,0007.60,0002.54,0001.32
2022-04-09 10:11:00,,0820.6,5.00,0.00,27.2,26.4,00.0,36.2,29.0,07.8,0000.0,0007.56,0002.51,0001.32
2022-04-09 10:12:00,,0820.6,4.99,0.00,27.2,26.4,00.0,36.2,29.0,07.8,0000.0,0007.48,0002.47,0001.31
2022-04-09 10:13:00,,0820.6,5.00,0.00,27.2,26.4,00.0,36.2,29.1,07.8,0000.0,0007.54,0002.51,0001.31
2022-04-09 10:14:00,,0820.5,5.00,0.00,27.2,26.4,00.0,36.2,29.1,07.8,0000.0,0007.05,0002.53,0001.31
2022-04-09 10:15:00,,0820.5,5.00,0.00,27.2,26.4,00.0,36.2,29.1,07.7,0000.0,0007.30,0002.49,0001.30
2022-04-09 10:16:00,,0820.5,5.01,0.00,27.2,26.4,00.0,36.2,29.1,07.7,0000.0,0007.57,0002.49,0001.31
2022-04-09 10:17:00,,0820.5,5.01,0.00,27.2,26.4,00.0,36.2,29.0,07.7,0000.0,0007.72,0002.53,0001.31
2022-04-09 10:18:00,,0820.5,5.01,0.00,27.2,26.4,00.0,36.2,29.0,07.8,0000.0,0007.57,0002.50,0001.30
2022-04-09 10:19:00,,0820.4,4.99,0.00,27.2,26.4,00.0,36.2,29.0,07.6,0000.0,0007.53,0002.50,0001.30
2022-04-09 10:20:00,,0820.5,5.00,0.00,27.2,26.4,00.0,36.2,29.0,07.7,0000.0,0007.50,0002.49,0001.30
2022-04-09 10:21:00,,0820.4,5.00,0.00,27.2,26.3,00.0,36.2,28.9,07.7,0000.0,0006.92,0002.47,0001.31
2022-04-09 10:22:00,,0820.4,5.01,0.00,27.2,26.3,00.0,36.2,28.9,07.8,0000.0,0007.22,0002.51,0001.31
2022-04-09 10:23:00,,0820.4,4.99,0.00,27.1,26.3,00.0,36.2,28.9,07.7,0000.0,0007.29,0002.51,0001.30
2022-04-09 10:24:00,,0820.3,5.00,0.00,27.1,26.3,00.0,36.2,29.0,07.7,0000.0,0007.29,0002.50,0001.30
2022-04-09 10:25:00,,0820.4,5.01,0.00,27.2,26.3,00.0,36.2,29.0,07.7,0000.0,0007.34,0002.44,0001.30
2022-04-09 10:26:00,,0820.4,5.00,0.00,27.2,26.3,00.0,36.2,28.9,07.7,0000.0,0006.02,0002.44,0001.30
2022-04-09 10:27:00,,0820.4,4.99,0.00,27.2,26.3,00.0,36.2,28.9,07.8,0000.0,0005.93,0002.47,0001.30
2022-04-09 10:28:00,,0820.3,5.00,0.00,27.1,26.3,00.0,36.2,28.9,07.8,0000.0,0006.24,0002.50,0001.29
2022-04-09 10:29:00,,0820.3,5.01,0.00,27.1,26.3,00.0,36.1,28.9,07.7,0000.0,0006.33,0002.53,0001.29
2022-04-09 10:30:00,,0820.4,4.99,0.00,27.1,26.3,00.0,36.1,29.0,07.7,0000.0,0006.24,0002.50,0001.29
2022-04-09 10:31:00,,0820.4,4.99,0.00,27.1,26.3,00.0,36.1,28.9,07.8,0000.0,0006.20,0002.52,0001.30
2022-04-09 10:32:00,,0820.4,4.99,0.00,27.1,26.3,00.0,36.1,28.9,07.8,0000.0,0006.19,0002.52,0001.28
2022-04-09 10:33:00,,0820.4,5.01,0.00,27.1,26.3,00.0,36.1,28.9,07.8,0000.0,0006.09,0002.48,0001.29
2022-04-09 10:34:00,,0820.4,5.00,0.00,27.1,26.3,00.0,36.1,28.9,07.7,0000.0,0005.99,0002.48,0001.29
2022-04-09 10:35:00,,0820.3,5.01,0.00,27.1,26.3,00.0,36.1,28.9,07.7,0000.0,0005.82,0002.43,0001.30
2022-04-09 10:36:00,,0820.5,4.98,0.00,27.1,26.3,00.0,36.1,28.9,07.7,0000.0,0005.66,0002.42,0001.30
2022-04-09 10:37:00,,0820.3,4.99,0.00,27.1,26.3,00.0,36.1,28.8,07.8,0000.0,0006.21,0002.41,0001.29
2022-04-09 10:38:00,,0820.3,4.99,0.00,27.1,26.3,00.0,36.1,28.9,07.8,0000.0,0005.89,0002.35,0001.29
2022-04-09 10:39:00,,0820.3,5.00,0.00,27.1,26.3,00.0,36.1,28.9,07.8,0000.0,0005.81,0002.33,0001.30
2022-04-09 10:40:00,,0820.3,5.02,0.00,27.1,26.3,00.0,36.1,28.9,07.8,0000.0,0006.59,0002.32,0001.31
2022-04-09 10:41:00,,0820.3,5.00,0.00,27.1,26.3,00.0,36.1,28.9,07.8,0000.0,0007.53,0002.37,0001.33
2022-04-09 10:42:00,,0820.3,5.00,0.00,27.1,26.3,00.0,36.1,28.9,07.8,0000.0,0007.49,0002.33,0001.32
2022-04-09 10:43:00,,0820.4,5.00,0.00,27.1,26.3,00.0,36.1,28.9,07.8,0000.0,0007.50,0002.32,0001.33
2022-04-09 10:44:00,,0820.3,5.01,0.00,27.1,26.4,00.0,36.1,28.9,07.8,0000.0,0007.41,0002.30,0001.32
2022-04-09 10:45:00,,0820.3,5.00,0.00,27.1,26.4,00.0,36.1,28.9,07.8,0000.0,0007.60,0002.40,0001.32
2022-04-09 10:46:00,,0820.3,4.99,0.00,27.1,26.3,00.0,36.1,28.9,07.8,0000.0,0007.73,0002.43,0001.32
2022-04-09 10:47:00,,0820.3,5.00,0.00,27.1,26.3,00.0,36.1,28.9,07.8,0000.0,0007.77,0002.40,0001.31
2022-04-09 10:48:00,,0820.3,4.99,0.00,27.1,26.3,00.0,36.1,28.9,07.8,0000.0,0007.35,0002.33,0001.32
2022-04-09 10:49:00,,0820.3,5.00,0.00,27.1,26.3,00.0,36.1,28.9,07.8,0000.0,0007.23,0002.37,0001.31
2022-04-09 10:50:00,,0820.3,5.02,0.00,27.1,26.3,00.0,36.1,28.9,07.8,0000.0,0007.25,0002.36,0001.29
2022-04-09 10:51:00,,0820.4,5.00,0.00,27.1,26.3,00.0,36.1,28.9,07.8,0000.0,0006.13,0002.36,0001.29
2022-04-09 10:52:00,,0820.3,5.00,0.00,27.1,26.3,00.0,36.1,28.9,07.8,0000.0,0004.86,0002.28,0001.27
2022-04-09 10:53:00,,0820.3,5.01,0.00,27.1,26.3,00.0,36.1,29.0,07.7,0000.0,0005.16,0002.27,0001.27
2022-04-09 10:54:00,,0820.2,4.99,0.00,27.2,26.4,00.0,36.1,29.0,07.7,0000.0,0005.31,0002.26,0001.27
2022-04-09 10:55:00,,0820.2,5.00,0.00,27.2,26.4,00.0,36.1,29.0,07.7,0000.0,0005.80,0002.26,0001.27
2022-04-09 10:56:00,,0820.3,5.02,0.00,27.2,26.4,00.0,36.1,29.1,07.7,0000.0,0006.23,0002.18,0001.28
2022-04-09 10:57:00,,0820.3,5.00,0.00,27.2,26.5,00.0,36.1,29.1,07.7,0000.0,0006.00,0002.12,0001.27
2022-04-09 10:58:00,,0820.3,5.00,0.00,27.2,26.5,00.0,36.1,29.1,07.7,0000.0,0005.78,0002.12,0001.26
2022-04-09 10:59:00,,0820.3,5.01,0.00,27.2,26.5,00.0,36.1,29.1,07.7,0000.0,0005.89,0002.15,0001.25
